STARLINK-1516 (45749 NORAD) Tracking and Keplerian Element Data

This shows tracking and keplerian element data for the satellite.

Feedback or suggestion? Click here.




ElementValue
Catalog45749
NameSTARLINK-1516
Epoch Orbit177
Epoch Day218.91667824
Epoch Year2020
RAAN34.6166
Inclination53.0012
Eccentricity0.0001432
Argument of Perigee91.52
Mean Anonmoly118.1783
Mean Motion15.63171157
Decay Rate0.00055522
L11 45749U 20038V 20218.91667824 .00055522 00000-0 59820-3 0 9994
L22 45749 53.0012 34.6166 0001432 91.5200 118.1783 15.63171157 1776

Live tracking and technical data element details for STARLINK-1516 (NORAD 45749). STARLINK-1516 can be tracked NOW for your location showing map with azimuth and elevation plus other details from your city location.

Track the satellite on the map from your city or location and see movement details for azimuth, elevation, latitude, longitude, range, height, and movement on the map or in text.







IsCatalogInMostPopularTable: catalog: 45749, numindb: 16
Update: records affected: 1



GetName: 45749 STARLINK-1516

Hit Count: updated at: Sat, 08 Aug 2020 00:40:07 GMT